Zurück zum Katalog

STARLINK-3125

AktivKommunikationVLEO
NORAD 49451·PAYLOAD·🇺🇸 United States

Gestartet Nov 13, 2021 von Cape Canaveral Space Force Station

Loading…

Nächste Überflüge (nächste 24 Stunden)

TLE

AktuellSource: CelesTrak SupGP

Epoche: Sep 14, 2026, 14:35 UTC

1 49451C 21104AV  26257.60812500 -.00020911  00000+0 -63448-3 0  2574
2 49451  53.1581  79.4392 0001422  88.7617 206.0727 15.33561722    18

Verfolge STARLINK-3125 in Echtzeit mit AllMySat

Download on the App Store